一网星座-0555星 (ONEWEB-0555)

导读 | 豆包AI

ONEWEB-0555是英国OneWeb公司的第一代低轨宽带通信卫星,于2023年3月26日由印度LVM3火箭搭载发射,和其他35颗卫星共同完成OneWeb第一代星座的组网部署。卫星重约150公斤,运行在1200公里高度近极轨道,采用Ku波段提供宽带服务,配备脱轨装置,主要服务企业、交通和政府等领域,助力全球覆盖的低轨卫星互联网实现。

基本信息
目录编号:
56057
目录名称:
ONEWEB-0555
国际标识:
2023-043M
轨道中心:
EARTH
卫星名称:
一网星座-0555星
卫星全名:
一网星座-0555星 (ONEWEB-0555)
卫星状态:
在轨 (已飞行1105 天)
发射日期:
2023-03-26 UTC
国别 :
英国 (GB)
星等 :
--
轨道信息
数据来源 国际轨道数据 AOE轨道数据
星历时间 2026-04-04T03:20:59+0800
8小时前
查看轨道信息
2026-04-02T15:00:00+0800
1天前
查看轨道信息
半长轴 7575.891km 7575.887km
偏心率 0.0001151 0.0000816
轨道倾角 87.904° 87.905°
近地点辐角 100.049° 136.304°
升交点赤经 243.551° 243.853°
平近点角 260.077° 249.267°
近地点 1196.882km 1197.131km
远地点 1198.626km 1198.369km
周期 109.373分钟 109.373分钟
每日圈数 13.165951 13.16596
详细信息
平衡模式:
三轴稳定
覆盖范围:
全球
运营商:
一网卫星公司
运营商所在国:
英国
制造商(研发单位):
一网卫星公司
制造商所在国:
英国
使用方式:
暂无
卫星简介
OneWeb卫星网络由648颗重约125公斤的微型卫星组成,运行在1200公里的轨道上。 每颗卫星都能够提供至少每秒8千兆位的吞吐量,以使用其高吞吐量的Ku频段有效载荷为家庭和移动平台提供互联网接入。该卫星仍在工作。
2D轨道图
3D轨道图
轨道高度分析图
轨道倾角分析图
轨道综合分析图
查看轨道综合分析图